CAPE
1590 1854 1838 2407 2404 2388 2239 2112 2144 2064 1812 1802 1729 1759 1903 1806 1803 1751 1412 1246 1489 1589 1605 1703 1812 1764 1737 1737 1672 1566 1417 1218 1314 1375 1432 1348 1249 1227 988 818 798 754 719 673 566 551 734 723 700 871 1005 1079 984 1088 1002 1060 845 571 554 518 476 439 595 557 694 987 1225 1141 1176 1219 980 801 774 563 662 752 401 223 156 282 392 251 238 217 130
1546 1944 2134 2431 2450 2406 2341 2202 2269 2172 2192 2064 2037 2042 2028 1952 2008 1933 1741 1223 1570 1630 1675 1763 1830 1850 1677 1587 1572 1423 1363 1348 1378 1350 1396 1287 1238 1253 1184 1154 1046 873 669 582 470 405 432 354 520 767 1014 1044 949 1032 1029 974 784 686 568 569 609 530 512 440 500 858 1423 1530 1421 1227 1040 915 653 710 773 698 534 476 435 298 45 39 3 6 30
1687 2045 2285 2479 2521 2427 2323 2268 2093 2084 2090 1947 1934 2074 2157 2040 1935 1976 1932 1794 1684 1852 1869 1826 1804 1692 1652 1596 1501 1498 1336 1316 1344 1384 1352 1252 1273 1188 1191 1082 827 546 530 477 411 429 485 548 550 649 668 797 793 788 813 785 732 619 665 693 726 755 634 564 549 647 1162 1167 1039 1064 1152 1081 934 564 369 287 309 196 108 38 0 0 0 144 77
1792 2123 2331 2420 2481 2416 2338 2205 2117 2154 2004 1845 2178 2226 2249 2198 2039 2047 2151 2175 2112 2083 2017 1885 1675 1743 1685 1589 1474 1381 1359 1415 1357 1296 1285 1218 1160 1235 1209 1197 989 743 655 592 542 538 584 552 648 692 757 811 747 708 754 808 644 560 739 824 857 887 891 952 970 1068 1175 1086 1026 820 913 713 839 768 773 661 500 277 177 89 0 0 2 1 0
1960 2200 2369 2320 2299 2413 2289 2063 2076 2122 2007 1876 2220 2302 2341 2236 2121 2079 2037 2045 2073 2125 2071 2172 2132 1896 1791 1648 1522 1439 1376 1295 1244 1266 1261 1312 1331 1331 1323 1359 1300 1348 1085 888 658 495 441 429 493 363 429 648 708 666 755 791 645 686 766 769 814 826 892 876 929 1014 1006 980 848 633 648 576 479 464 400 255 290 319 418 378 322 400 391 325 226
2026 2309 2321 2232 2316 2398 2316 2038 2092 2174 2112 2087 2388 2366 2318 2214 2140 2240 2222 2140 2029 2014 1991 2067 2006 1973 1901 1862 1787 1692 1562 1492 1435 1400 1379 1427 1387 1478 1356 1364 1342 1331 1321 1330 1249 944 502 319 336 586 823 853 845 804 794 777 832 888 802 776 888 901 912 956 959 961 861 765 574 540 570 555 561 310 214 365 566 534 338 194 144 61 47 90 189
2140 2344 2209 2227 2322 2273 2306 2085 2215 2223 2208 2299 2474 2385 2268 2222 2241 2244 2213 2152 2034 2005 1963 1853 1822 1832 1925 1998 2043 1903 1798 1822 1892 1852 1738 1624 1472 1373 1284 1167 1400 1372 1203 1262 1256 1170 1091 834 715 614 562 787 883 932 916 921 864 865 852 851 918 928 819 834 826 740 584 441 456 495 538 614 729 793 915 863 638 322 173 74 49 182 119 99 118
2282 2190 2181 2258 2291 2298 2249 2186 2229 2285 2344 2431 2429 2402 2432 2253 2295 2344 2284 2213 2136 2009 1901 1838 1781 1855 1908 1944 1961 1942 1913 1918 1934 1833 1551 1729 1626 1332 1260 1196 1217 1274 1174 1277 1268 1162 713 661 629 610 916 983 1010 1028 1039 990 1009 951 990 969 896 851 829 807 698 634 448 324 362 430 465 460 496 552 832 837 472 160 41 11 10 17 20 36 21
2275 2186 2162 2270 2314 2352 2240 2175 2259 2396 2398 2387 2486 2582 2418 2500 2376 2438 2346 2148 1984 1934 1765 1720 1755 1800 1801 1865 1944 1990 1904 1856 1884 1911 1888 1798 1727 1534 1570 1205 1182 1202 1430 1386 1324 1257 1128 869 714 779 908 1165 1200 1114 1011 957 1031 940 834 912 780 638 704 752 723 550 301 388 467 502 544 680 828 914 883 643 428 331 283 199 108 234 133 89 38
2242 2227 2283 2350 2265 2236 2240 2183 2312 2489 2471 2560 2571 2628 2593 2505 2467 2499 2434 2190 1980 1799 1614 1529 1614 1715 1788 1814 1846 1896 1926 1880 1814 1750 1798 1653 1565 1558 1643 1614 1622 1588 1586 1430 1272 1210 1066 1052 998 925 1118 929 999 990 884 933 915 909 833 764 654 561 703 734 686 632 358 421 440 501 941 855 811 712 568 389 312 220 8 0 63 50 3 3 110
2197 2288 2344 2321 2297 2281 2178 2255 2397 2573 2548 2629 2765 2591 2560 2659 2532 2542 2437 2250 1996 1785 1690 1547 1632 1697 1668 1711 1733 1742 1749 1837 1889 1825 1848 1766 1748 1761 1809 1730 1712 1612 1595 1432 1373 1300 1240 1188 1159 772 642 913 1020 1028 1058 1042 1057 860 622 508 597 895 870 729 484 250 367 445 547 793 1240 964 708 696 478 292 206 386 221 73 4 250 475 17 2
2082 2194 2242 2268 2450 2272 2180 2291 2446 2592 2665 2689 2721 2632 2672 2702 2635 2381 2518 2307 2116 1882 1733 1693 1558 1610 1712 1718 1756 1762 1761 1778 1904 1952 1837 1853 1848 1822 1834 1699 1615 1600 1542 1453 1430 1287 1278 1384 1474 1509 1414 1277 1116 1120 1113 1029 951 800 672 700 880 810 793 684 386 250 336 485 627 705 636 713 714 682 535 413 380 204 165 197 482 592 437 438 329
1985 1970 2105 2279 2243 2193 2190 2207 2510 2616 2559 2754 2684 2565 2691 2624 2540 2380 2339 2238 2052 1944 1966 2001 1948 1918 1848 1812 1900 1884 1805 1737 1670 1698 1803 1839 1790 1770 1732 1587 1599 1624 1583 1563 1497 1316 1237 1318 1467 1399 1308 1212 1140 1136 1010 1004 911 826 875 962 837 767 781 507 349 238 336 498 623 607 615 590 640 736 643 522 348 366 308 143 292 434 508 478 556
1675 1746 1728 1935 1943 1912 1769 2149 2436 2612 2666 2581 2642 2538 2504 2376 2418 2365 2286 2155 2095 2033 2056 2087 2106 2072 2025 2077 2003 1947 1870 1868 1806 1769 1873 1957 1946 1752 1697 1623 1545 1543 1664 1608 1562 1397 1286 1242 1165 1182 1053 994 1064 1021 1004 906 855 879 1009 953 761 756 687 498 396 256 336 473 596 568 546 567 578 716 540 497 457 387 357 280 208 313 329 341 349
1564 1680 1660 1873 1761 1966 1938 1819 2188 2347 2548 2498 2392 2372 2329 2333 2423 2343 2285 2242 2194 2171 2188 2216 2240 2203 2148 2151 2071 2019 1976 1854 1823 1824 1810 1944 1993 1904 1778 1659 1660 1712 1622 1568 1558 1452 1156 972 1118 1134 1038 1022 1000 995 1040 992 961 1022 1185 1087 803 754 560 453 248 258 320 394 559 563 573 583 990 615 516 472 501 460 367 291 195 195 155 127 165
1552 1602 1713 1764 1538 1301 1942 2034 2042 2171 1808 1702 2092 2274 2412 2425 2497 2473 2414 2341 2269 2266 2289 2355 2326 2408 2445 2431 2294 2144 2067 2037 1912 1849 1890 1929 1917 1948 1803 1674 1631 1573 1510 1530 1577 1329 1132 1065 1180 1128 1107 1004 948 933 1085 1041 1005 1141 1208 1262 977 723 556 396 292 272 202 421 546 584 528 581 910 716 514 444 442 391 342 363 335 320 263 175 128
1546 1634 1768 1772 1620 1730 1798 1934 1920 1832 1855 1672 2004 2529 2469 2167 2396 2510 2500 2374 2332 2308 2372 2403 2504 2576 2476 2457 2500 2324 2212 2121 1995 1871 1845 1876 1899 1863 1791 1718 1612 1549 1519 1573 1553 1330 1145 1109 1145 1072 1121 1122 1053 1029 1125 1233 1047 1114 1218 1298 1175 784 613 391 327 228 160 474 571 532 540 660 966 594 582 498 361 488 398 352 263 318 326 354 331
1430 1560 1887 1878 1746 1785 1814 1785 1766 1664 1776 1792 2594 2524 2087 1695 1796 2283 2469 2369 2334 2372 2397 2482 2533 2477 2376 2432 2579 2568 2439 2344 2176 2048 2009 1981 1935 1901 1889 1803 1724 1649 1609 1600 1529 1392 1193 1112 1101 1065 1083 1106 1107 1226 1265 1253 1158 1114 1208 1390 1232 930 752 473 352 232 196 514 465 532 492 906 924 709 603 541 429 387 410 425 506 429 325 322 434
1378 1521 1702 1758 1863 1925 1642 1715 1974 1755 1484 2013 2473 1983 1652 1737 1649 2452 2463 2426 2402 2442 2523 2560 2578 2532 2466 2450 2580 2598 2511 2261 2274 2162 2119 2061 2010 2000 1846 1771 1739 1708 1705 1657 1600 1421 1265 1185 1050 1090 1026 1095 1208 1117 1189 1274 1306 1226 1353 1250 1170 1036 936 588 376 274 303 508 365 382 435 737 1035 673 633 525 492 442 469 499 274 282 505 530 471
1310 1488 1484 1257 1698 1889 1503 1622 1962 1766 1924 1981 1626 1739 1607 1650 2052 2678 2543 2506 2515 2483 2633 2719 2671 2648 2596 2577 2597 2492 1856 2041 2152 2253 2185 2168 2173 1988 1950 1898 1838 1830 1746 1730 1622 1402 1324 1278 1150 1181 1125 1221 1213 1146 1156 1093 1383 1531 1393 1210 1190 1125 939 421 387 327 319 370 448 361 399 1024 835 678 659 594 531 372 299 190 330 555 535 383 499
1295 1238 960 1054 1687 1437 1541 1328 1511 1777 1940 1578 1470 1515 1751 1781 2320 2584 2686 2668 2635 2647 2519 2645 2597 2386 2057 1802 1776 1711 1728 1748 1670 2005 1995 2229 1946 2123 2127 2057 2055 1959 1877 1792 1635 1501 1354 1370 1284 1308 1188 1200 1112 1054 1051 1214 1264 1374 1271 1209 1310 1012 694 444 404 407 361 442 678 330 524 1078 867 623 600 568 460 355 314 359 539 499 431 553 630
1005 996 1092 1364 1519 1555 1523 1279 1458 1620 1443 1337 1489 1534 1796 2036 2124 2231 2172 2208 2283 2247 2060 2215 2092 1935 1900 1759 1566 1522 1593 1582 1653 1892 1834 1887 2084 2278 2242 2217 2165 2134 2022 1872 1745 1644 1594 1527 1369 1356 1253 1116 777 165 138 532 1142 1310 1136 1187 760 731 567 478 434 373 388 367 530 333 718 940 796 632 548 584 453 425 312 259 207 396 772 684 601
746 696 883 1196 1000 917 1006 1179 1229 1361 1145 1476 1815 1578 1722 2006 2058 2092 2016 2007 2087 1788 1785 1761 1852 1816 1836 1732 1454 1254 1393 1414 1402 1378 1522 1665 1843 1873 2157 2358 2356 2223 2144 2060 1880 1709 1747 1722 1602 1394 1205 734 422 0 0 10 641 1156 815 462 480 459 540 522 460 392 367 392 395 432 828 850 789 625 588 537 502 386 337 300 236 775 791 668 660
610 526 707 988 1179 838 818 931 1314 1300 1635 1568 2135 1850 1805 1770 1786 1836 1739 1813 1762 1662 1577 1524 1535 1385 1129 1532 1647 1541 1504 1422 1612 1904 1612 1101 1563 1826 1832 1696 1874 2255 2206 2095 1948 1807 1724 1836 1556 1458 1049 648 424 0 0 0 423 422 415 500 577 463 492 535 504 426 318 559 379 551 851 856 725 634 615 540 366 410 344 311 261 736 576 622 568
646 686 820 1130 880 1031 1265 1083 796 739 1122 1259 1734 1915 1921 1801 1661 1630 1578 1663 1435 1466 1531 1654 1573 1364 1278 1378 1482 1642 1566 1459 1477 1531 1360 1036 1170 1420 1718 1752 1608 1548 2063 1909 1858 1841 1689 1673 1533 1356 1293 869 566 347 3 4 374 444 474 583 610 502 440 495 503 446 270 477 396 600 896 877 814 661 695 505 460 454 380 289 165 172 604 599 454
515 436 928 1013 862 840 858 1072 788 1318 725 1136 1658 1823 2058 1963 1770 1846 1796 1557 1260 1301 1478 1541 1458 1283 1101 1336 1497 1595 1586 1548 1541 1479 1315 1341 1222 1239 1409 1682 1790 1692 1726 1866 1903 1726 1662 1543 1462 1430 1347 1146 816 570 382 160 342 396 539 696 734 515 458 440 451 391 248 374 405 617 1025 963 1156 716 687 602 532 449 388 337 182 160 179 378 275
512 519 1136 670 319 500 869 904 1003 1385 1021 1106 1590 1982 1843 1922 1946 1728 1770 1639 1416 1379 1181 1406 1510 1522 1587 1509 1528 1515 1551 1619 1535 1515 1570 1365 1202 1184 1331 1557 1698 1816 1914 1893 1778 1620 1586 1560 1438 1251 1251 1233 1070 854 598 365 320 368 523 763 785 704 480 430 403 380 284 297 420 682 977 1148 1303 1071 694 677 605 518 449 333 338 266 177 97 168
515 583 1014 468 360 371 647 1273 935 1009 1198 1246 1695 2312 1944 2009 2192 2076 1703 1820 1078 1299 1336 1489 1616 1735 1908 1846 1646 1466 1475 1586 1620 1572 1516 1530 1448 1268 1122 1462 1557 1862 1896 1880 1760 1600 1534 1559 1404 1228 1149 1130 1137 951 542 192 269 236 600 742 826 879 666 512 380 421 308 283 349 721 1144 1257 1350 1488 757 679 651 566 481 349 379 289 205 112 172
592 608 623 444 471 583 683 1400 1054 672 852 1128 1910 2234 2012 2042 2267 2173 1649 1637 1165 1200 1329 1465 1594 1650 1946 2080 1839 1613 1481 1364 1500 1526 1484 1468 1487 1172 1158 1290 1265 1604 1887 1767 1674 1590 1574 1535 1510 1337 1254 1286 1261 882 441 216 230 295 609 664 763 925 908 802 506 445 282 333 374 562 1208 1355 1354 1289 1072 752 695 707 606 461 400 354 241 147 141
660 477 694 675 625 1108 1266 1685 1343 917 1130 1152 1961 2174 2104 2048 2253 2323 1837 1959 1636 1588 1555 1382 1366 1462 1655 1822 1988 1968 1882 1586 1366 1331 1436 1583 1306 966 1115 1328 1326 1320 1677 1640 1649 1693 1571 1562 1592 1448 1382 1307 1056 810 472 218 220 354 500 668 756 726 830 920 746 521 333 417 432 528 1019 1476 1370 1154 1214 874 789 643 700 584 467 417 323 283 208
465 713 739 830 899 925 1145 1674 1629 1439 1419 1340 1811 1977 2117 2165 2236 2258 2076 2149 1871 1777 1687 1371 1264 1280 1467 1617 1734 1821 1883 1757 1567 1378 1248 1240 1064 1120 1116 1265 1456 1250 1434 1535 1508 1641 1731 1781 1691 1406 1243 1037 967 681 230 238 308 416 330 480 688 707 780 845 726 580 504 586 609 645 769 920 1073 1044 857 1038 1061 856 728 805 596 401 338 311 282
758 926 886 776 945 1057 838 840 1186 1492 1716 1862 1855 2031 2034 2113 2220 2311 2216 2082 2085 1983 1970 1863 1738 1529 1478 1538 1620 1667 1690 1758 1746 1612 1425 1305 1095 1084 1068 799 1142 1466 1134 1099 1157 1422 1643 1822 1690 1369 1136 909 907 597 310 338 417 299 414 622 648 731 823 836 823 438 522 428 572 740 726 739 745 1050 1054 941 974 1355 1013 979 970 727 509 371 334
822 861 1176 1035 1129 1259 999 1211 1272 1066 1766 2153 2132 2246 2244 2306 2378 2413 2387 2190 1996 1913 1811 1820 1876 1940 1867 1751 1654 1791 1768 1752 1760 1618 1539 1373 1107 1042 982 874 933 1040 1161 937 1091 1305 1566 1734 1631 1290 1072 910 932 711 489 355 301 286 348 542 771 816 873 870 873 785 597 530 364 650 738 652 623 720 1001 1189 1184 1128 1160 1445 1148 1062 750 545 409
1110 1097 1337 1011 1297 1231 1039 1330 1370 1615 1891 2218 2494 2498 2429 2590 2635 2532 1971 1558 1535 1642 1776 1913 1939 1854 1669 1512 1557 1634 1785 1782 1748 1641 1580 1361 1081 1114 1095 1054 1044 1020 884 982 1113 1263 1526 1550 1298 1052 971 908 935 872 630 445 358 294 384 458 542 662 795 909 935 813 743 653 429 210 237 279 552 651 618 872 1091 1178 1342 1237 1552 1376 1147 898 511
1064 1211 1320 1019 1391 976 878 1063 1368 1786 2007 2175 2617 2660 2339 2054 2010 1736 1633 1284 1029 961 954 908 762 775 833 951 1082 1282 1525 1695 1700 1614 1444 1288 1133 1127 1206 1267 1168 1247 934 1200 1178 1307 1398 1292 1032 799 950 922 898 657 617 413 518 407 402 388 386 427 495 622 667 727 781 802 590 328 224 287 200 418 662 734 878 1014 1131 1216 1419 1510 1517 1180 771
1130 1445 1212 1274 1071 736 662 1000 1319 1750 2097 2432 2628 2511 2025 1674 1424 1265 1006 878 786 834 884 909 927 979 1059 1129 1090 1066 1260 1434 1522 1514 1419 1231 1301 1349 1272 1220 1252 1248 1129 1134 1274 1357 1340 1290 994 822 689 713 770 623 385 468 362 434 419 403 382 395 385 362 367 426 581 742 786 611 610 318 317 318 782 689 735 817 933 1280 1331 1316 1306 1587 1269
1411 1337 1122 1290 809 855 652 1066 1578 1945 2146 2268 2369 2242 1843 1430 1032 917 863 817 737 678 763 944 1045 1034 1107 1220 1229 1248 1174 1207 1266 1304 1300 1231 1197 1128 1037 1244 1277 1405 1065 1184 1209 1114 958 959 943 962 766 754 679 725 737 468 460 464 423 459 431 352 368 369 378 363 342 338 535 656 533 507 412 670 841 611 583 580 595 748 1055 1058 1172 1220 1372
1318 942 1186 1039 943 1268 1054 1336 1894 2136 1961 2005 2089 1972 1601 1191 1015 1002 922 819 811 882 987 1035 996 908 764 934 1034 1208 1289 1214 1038 1064 1126 1125 1120 938 954 962 993 1110 1023 988 923 858 857 872 865 883 825 700 598 638 411 346 296 339 337 393 456 375 317 328 322 279 261 256 135 163 388 405 383 506 468 477 454 430 454 431 565 758 1050 1102 1200
1315 1161 1271 1061 1624 1770 1629 1750 2061 2121 1843 1942 1996 1778 1301 1122 1136 1050 1015 1027 1015 965 876 712 519 510 542 688 1000 1206 1164 960 975 1100 1169 1209 1159 1072 952 740 818 992 855 668 552 556 767 842 754 734 652 546 570 608 587 472 453 278 305 302 302 486 451 361 63 19 21 28 86 108 118 160 275 295 377 502 594 588 606 649 614 522 559 705 1131
1530 1467 1642 1254 1884 2107 2032 1945 1854 1805 1726 2043 1926 1346 1278 1339 1414 1335 1191 1120 949 662 527 488 480 415 347 516 921 1043 1141 987 888 826 800 1080 1190 1058 777 641 723 824 731 437 503 719 823 797 677 621 551 515 528 539 266 229 307 593 689 688 799 846 463 345 229 70 0 0 0 0 0 0 0 342 515 426 344 469 572 556 487 589 647 700 778
1303 1158 1144 1429 1920 2066 2001 1906 1502 1655 1945 1835 1395 1374 1531 1602 1352 1031 954 981 608 481 422 476 522 522 552 543 507 512 470 368 464 737 634 848 908 916 850 778 808 752 603 516 648 845 859 777 716 671 549 488 365 540 589 436 522 643 772 806 688 672 502 451 276 86 42 0 0 0 0 0 128 458 722 687 694 616 536 539 388 534 689 712 513
1351 1352 1292 1739 2104 2076 1947 1518 1175 1358 1211 1246 1395 1581 1660 1357 953 1056 1058 718 453 344 256 412 446 554 636 625 606 536 559 548 625 785 768 712 684 596 554 603 726 621 659 615 587 665 551 542 642 672 590 579 495 581 650 655 523 614 798 680 697 693 537 494 229 107 61 1 0 0 0 0 0 417 630 588 488 434 616 420 386 400 406 450 509
1650 1549 1647 2284 2166 1927 1516 1208 1094 1096 1032 966 1302 1408 1279 1036 967 977 846 522 344 295 319 0 412 446 466 570 462 350 354 523 964 862 886 870 717 476 414 417 548 586 600 619 699 812 792 720 644 642 501 481 506 419 415 411 515 686 586 363 418 484 342 438 328 0 0 0 0 0 0 0 0 0 3 12 138 212 622 494 348 243 160 90 136
1883 1664 2058 2403 1957 1559 1327 1213 1178 1108 986 547 813 927 1006 862 748 742 482 266 172 299 212 0 0 0 0 461 683 501 354 370 810 1136 1131 938 848 793 598 497 641 813 792 827 830 690 619 576 523 496 498 560 380 367 535 527 390 403 532 457 281 127 76 146 208 26 41 0 0 0 0 0 0 0 0 2 9 72 135 437 509 436 182 225 393
1767 1681 2144 2318 1752 1409 1291 1231 1162 997 510 236 515 735 805 685 556 433 157 0 0 0 0 0 0 0 0 0 0 191 316 489 571 989 1252 1276 1118 1024 947 881 753 750 688 568 454 437 420 442 482 456 433 437 447 372 345 431 439 404 325 287 136 227 121 154 62 4 45 24 0 0 0 0 0 0 0 0 0 4 14 153 341 456 587 480 539
1662 1838 2167 2265 1655 1411 1314 1031 797 500 0 115 400 550 616 497 365 229 0 0 0 0 0 0 0 0 0 0 0 0 0 0 320 884 1208 1199 1048 1037 959 836 838 752 680 424 418 353 105 407 417 498 478 456 385 366 366 187 250 215 97 392 138 569 230 89 10 10 2 0 0 0 0 0 0 0 0 0 0 0 0 2 13 113 482 660 694
1797 1841 2145 2070 1614 1454 805 676 458 159 185 108 322 419 422 322 237 89 0 0 0 0 0 0 0 0 0 0 0 0 0 0 0 719 1204 1176 1066 1059 911 869 864 809 589 430 335 261 280 152 368 439 448 306 294 310 447 271 166 12 280 482 316 219 260 1 18 0 28 22 0 0 0 0 0 0 0 0 0 0 0 0 0 8 64 328 558
1931 1920 2144 1879 1565 1343 428 464 389 204 226 177 259 328 298 272 224 52 0 0 0 0 0 0 0 0 0 0 0 0 0 0 0 356 883 986 947 860 846 895 918 815 570 398 308 290 245 248 320 408 483 486 564 580 444 423 261 43 16 297 490 356 246 98 56 12 0 1 0 0 0 0 0 0 0 0 0 0 0 0 0 0 0 0 0
1882 1970 1897 1448 1055 726 345 447 423 239 258 235 238 308 294 303 259 0 0 0 0 0 0 0 0 0 0 0 0 0 0 0 0 0 481 602 568 488 600 805 856 568 449 345 373 420 431 392 437 451 490 588 614 615 513 448 421 40 189 285 4 0 65 188 78 54 33 6 0 0 0 0 0 0 0 0 0 0 0 0 0 0 0 0 0
1816 1644 1356 764 334 436 400 391 490 348 336 316 159 336 346 333 286 0 0 0 0 0 0 0 0 0 0 0 0 0 0 0 0 0 0 0 0 0 191 482 324 145 0 224 294 313 257 306 470 615 635 652 540 611 589 552 509 394 0 0 0 0 0 0 0 0 0 0 0 0 0 0 0 0 0 0 0 0 0 0 0 0 0 0 0
1685 1312 884 694 700 726 514 401 450 135 365 308 0 189 294 285 265 0 0 0 0 0 0 0 0 0 0 0 0 0 0 0 0 0 0 0 0 0 0 0 0 0 0 0 0 34 352 433 460 432 477 562 642 548 499 430 295 115 0 0 0 0 0 0 0 0 0 0 0 0 0 0 0 0 0 0 0 0 0 0 0 0 0 0 0
Wind_Speed
29 33 30 34 36 37 40 42 43 44 44 43 45 45 46 47 46 46 45 44 44 43 42 42 41 41 41 41 41 40 40 40 39 37 35 35 35 34 33 33 32 31 29 28 27 26 24 23 22 19 17 17 17 17 17 18 20 21 23 24 25 25 27 26 25 25 23 24 23 23 22 21 21 21 20 20 19 19 19 19 17 15 11 13 17
32 32 32 33 39 39 42 43 43 44 43 43 44 46 48 47 45 45 45 43 42 42 43 42 42 41 41 40 40 40 40 40 39 38 36 34 34 34 33 33 33 32 31 29 27 27 25 23 21 19 17 17 17 17 17 19 20 22 22 23 24 25 25 25 25 25 27 25 23 24 23 23 21 20 20 20 20 19 19 19 nan nan nan nan nan
33 32 32 35 40 40 42 45 45 46 44 45 46 46 46 46 44 43 44 44 43 43 43 43 41 41 40 41 41 41 40 39 39 37 36 35 34 34 33 33 32 32 31 29 27 27 25 23 22 19 17 17 17 16 17 18 20 21 22 23 25 26 25 24 25 25 26 25 25 25 24 23 22 21 20 20 19 18 19 nan nan nan nan 19 nan
33 31 32 36 42 41 44 47 48 47 47 47 45 45 45 43 42 40 40 42 43 43 42 42 41 40 40 41 41 41 40 39 38 37 36 35 34 34 33 33 33 33 32 30 29 27 26 23 22 20 18 17 17 17 18 19 20 20 22 23 24 24 24 23 24 24 25 25 24 21 16 16 19 22 21 21 20 20 19 nan nan nan nan nan nan
33 33 33 36 40 43 46 48 49 49 49 50 46 43 42 41 40 40 41 42 42 42 41 39 39 39 39 40 41 40 40 38 37 36 35 34 33 33 33 32 33 33 32 31 30 28 26 24 22 20 18 17 17 17 18 20 20 21 21 22 23 24 23 23 23 24 25 25 24 18 17 16 15 21 21 22 21 20 19 19 18 18 19 18 17
33 34 36 37 40 42 46 48 49 51 51 51 46 43 41 40 42 43 43 43 43 42 41 40 40 40 40 40 40 40 39 38 37 36 34 33 33 32 33 33 32 32 32 32 31 30 27 24 22 21 19 18 18 19 19 19 19 19 21 22 23 23 22 21 22 23 24 25 23 18 17 17 15 16 21 22 21 20 20 19 19 nan nan nan 18
37 36 38 40 41 44 48 49 51 53 52 51 46 43 43 45 46 46 46 44 43 42 42 42 41 41 40 40 39 38 38 38 36 35 34 33 33 33 32 33 32 32 32 32 31 30 28 26 23 21 19 18 19 19 20 20 18 19 21 22 21 21 21 21 21 22 23 20 19 18 17 17 16 16 22 22 20 20 19 nan nan 20 19 nan 18
36 37 38 40 42 46 51 52 53 53 50 46 44 44 46 47 47 46 45 44 43 42 43 42 41 41 41 40 38 37 37 36 36 35 34 33 33 33 33 32 32 32 32 32 31 31 28 26 23 22 20 20 20 20 21 19 18 19 20 19 18 19 19 20 21 21 21 18 18 18 18 17 17 16 22 22 20 19 nan nan nan nan nan nan nan
37 38 40 41 43 51 51 53 53 51 47 44 44 45 46 46 46 45 45 44 43 43 43 42 41 41 40 39 38 37 37 37 36 35 35 33 33 33 32 32 32 32 32 31 30 30 28 26 24 23 21 20 20 21 21 19 18 17 16 17 17 17 18 19 20 20 17 16 18 18 18 18 19 17 23 22 21 20 19 16 16 20 20 nan nan
38 40 41 42 44 51 51 51 51 50 48 44 43 44 44 44 44 44 44 44 44 44 43 41 41 40 39 39 38 36 36 37 37 36 34 34 32 32 33 34 33 32 32 30 29 29 27 26 26 24 24 22 21 21 20 19 18 17 15 16 15 16 16 17 20 19 17 17 16 15 18 20 18 18 23 23 21 20 nan nan nan nan nan nan 20
40 41 43 44 47 51 52 51 50 48 47 45 44 44 44 43 43 42 43 44 45 44 42 40 40 39 39 38 38 37 37 38 37 36 34 34 33 32 32 32 32 31 30 29 28 28 28 26 26 25 24 24 22 21 19 19 18 18 16 12 16 16 14 17 20 18 18 17 16 14 17 22 19 18 24 22 21 20 18 nan nan 18 21 nan nan
43 43 44 44 49 52 51 51 50 46 44 43 43 42 42 41 40 43 43 43 43 42 40 38 38 38 38 38 37 37 38 37 37 36 35 34 34 33 31 30 31 30 29 29 28 28 27 25 25 25 24 24 24 22 20 19 18 18 14 14 15 16 15 20 19 19 19 17 16 16 17 19 19 21 26 23 22 19 18 17 18 18 19 18 18
45 44 44 45 45 50 50 49 48 43 39 39 41 40 39 40 40 42 42 41 40 38 37 36 35 35 35 36 37 37 38 38 37 36 34 34 35 34 32 30 30 30 29 28 28 27 26 24 23 23 23 24 25 24 22 21 19 18 16 15 16 18 18 21 19 19 19 18 16 16 17 16 18 23 24 23 21 20 18 16 17 17 18 18 20
45 43 44 44 44 47 43 41 41 38 35 36 37 37 38 40 41 41 41 38 36 35 35 34 33 33 33 34 35 37 39 40 39 37 35 35 35 35 33 31 29 29 28 27 27 27 25 23 22 22 23 23 24 24 23 21 20 19 19 19 19 21 22 21 20 20 19 18 17 16 15 15 17 23 23 22 22 20 18 16 17 17 16 16 18
44 42 43 43 43 41 38 34 36 34 33 34 35 36 39 41 41 41 37 33 32 33 33 33 32 32 33 35 37 39 41 42 42 40 38 37 36 35 32 30 29 29 28 26 26 27 26 23 22 23 24 24 23 23 23 22 21 21 22 21 21 23 24 21 19 19 19 18 16 17 15 14 19 23 23 21 20 19 18 17 16 16 15 15 16
41 40 38 38 40 37 34 38 37 35 32 32 34 35 37 39 40 36 30 29 31 32 32 31 32 33 34 36 38 40 41 43 42 40 38 38 37 35 32 29 27 27 27 27 26 27 26 23 22 22 24 25 23 22 22 23 23 23 23 22 22 24 24 22 20 20 19 19 17 16 14 13 20 21 23 22 20 19 18 17 16 17 16 15 15
36 36 35 34 36 38 36 34 35 34 37 32 32 31 33 37 36 28 25 29 32 31 30 31 32 34 35 37 39 40 42 41 40 38 38 37 36 34 31 29 26 26 27 27 27 27 26 24 23 22 24 25 25 22 21 22 23 23 24 23 23 23 24 23 21 20 20 19 18 16 14 14 19 20 22 23 21 19 18 18 17 16 16 16 15
35 34 33 34 35 34 31 29 32 32 31 32 31 32 36 36 25 23 26 30 30 29 30 32 34 35 36 38 39 40 40 39 37 36 36 34 32 30 28 27 25 24 26 27 28 27 26 24 23 23 23 24 25 25 23 22 23 23 24 24 23 22 23 23 21 21 21 19 19 18 16 15 18 21 22 22 22 20 18 18 18 17 17 16 15
34 34 33 32 32 29 28 30 30 32 30 31 31 33 35 27 23 23 28 29 29 29 32 33 35 36 37 38 38 38 37 37 36 35 34 31 28 26 25 24 24 23 23 25 27 26 26 25 23 25 24 23 25 27 25 23 23 24 25 25 23 22 22 23 22 22 21 21 20 20 18 15 17 20 22 22 22 21 18 18 18 18 18 17 17
33 33 32 30 27 29 29 30 31 30 31 33 34 29 26 24 23 25 28 28 29 30 32 34 36 37 38 38 36 34 34 33 34 33 34 32 29 24 25 24 24 23 24 24 25 25 25 25 24 26 26 25 27 29 27 25 25 26 26 27 25 22 23 23 23 23 22 21 21 20 19 17 17 18 21 21 21 20 19 17 18 19 18 17 17
31 31 32 31 29 31 30 30 29 29 32 34 32 27 24 20 20 26 28 27 29 30 32 36 37 38 37 36 33 31 30 27 26 25 29 26 27 29 29 27 25 24 24 23 24 24 24 25 25 27 28 28 28 29 29 29 26 25 26 27 26 25 24 23 23 23 22 22 22 22 19 20 18 18 20 20 20 20 19 19 18 18 18 18 17
28 29 30 31 32 33 32 30 28 28 30 32 24 25 22 19 24 26 27 28 30 31 31 31 34 31 35 32 29 28 27 24 23 25 25 24 24 27 29 29 26 24 23 22 23 23 24 24 24 27 29 28 27 24 24 27 28 25 25 26 27 25 23 22 22 22 23 22 23 20 19 21 19 20 20 20 19 19 19 18 17 18 19 19 19
29 31 30 30 29 32 31 26 24 29 31 24 23 24 24 25 28 31 30 31 30 32 31 33 33 32 31 30 28 29 26 23 22 23 24 27 24 25 27 27 25 23 22 22 22 22 22 23 24 26 29 27 25 nan nan nan 24 27 29 27 27 23 23 23 22 23 23 23 23 20 20 21 19 21 21 21 20 20 19 18 18 20 20 20 20
33 35 32 29 29 28 26 20 24 25 23 23 20 21 24 27 30 33 34 31 31 32 33 34 34 32 31 30 28 28 26 22 22 24 26 24 23 22 20 21 22 21 22 20 21 21 22 22 24 27 26 24 24 nan nan nan 25 25 26 27 26 23 22 21 22 23 24 23 23 20 20 21 19 22 22 22 21 21 20 18 18 22 20 21 20
34 36 31 27 24 23 22 27 27 19 22 24 20 19 22 25 27 31 31 30 32 33 32 31 31 31 29 28 26 26 24 20 19 22 24 22 20 19 18 19 18 16 19 21 22 21 23 23 24 25 24 23 23 23 nan nan 26 26 26 27 27 25 23 22 21 23 24 23 24 21 20 21 19 22 22 22 22 22 21 20 19 20 24 21 20
32 32 27 26 23 24 27 26 24 29 27 25 23 23 24 23 22 24 26 27 30 31 29 28 26 27 24 23 23 24 22 18 19 20 19 19 18 17 17 15 15 15 16 18 21 22 21 22 22 23 23 24 24 22 22 22 23 24 25 26 27 25 23 21 21 22 23 24 24 21 22 21 21 22 21 22 23 21 22 21 20 21 20 21 20
29 22 21 24 27 28 23 22 22 22 20 24 24 23 24 25 25 25 26 25 25 26 27 26 23 22 22 22 22 21 18 16 16 17 16 15 15 16 16 14 14 14 15 16 19 19 19 20 21 21 23 25 25 23 22 22 22 23 24 25 27 25 24 23 21 22 23 23 24 22 22 22 22 23 22 23 22 21 20 22 22 21 22 nan 20
26 24 22 24 21 16 17 21 25 21 22 22 21 21 21 23 25 25 22 20 21 20 21 23 23 23 22 21 20 19 16 14 14 15 15 15 14 13 15 15 14 14 15 15 16 16 17 18 19 21 23 25 26 25 23 22 21 21 23 23 25 25 24 24 25 26 26 24 24 22 22 22 23 24 23 24 23 21 20 22 22 22 23 22 20
29 28 24 24 22 17 19 25 27 29 28 22 20 22 22 22 20 20 19 19 18 17 19 22 23 22 18 18 17 16 14 13 12 14 15 16 16 15 14 14 14 13 13 13 13 13 14 15 16 18 20 23 24 26 24 24 24 23 23 22 24 25 25 26 27 28 28 27 26 25 22 22 24 25 24 24 24 23 21 21 22 23 23 23 22
24 26 25 25 26 23 22 25 30 34 33 26 19 20 20 19 17 17 18 18 16 17 19 20 20 19 16 15 14 14 14 13 11 12 15 17 17 17 16 13 13 12 12 13 15 14 15 16 17 17 18 21 23 25 27 28 27 26 26 25 25 25 25 26 27 29 30 30 28 27 26 24 24 25 27 24 24 24 23 22 21 23 22 22 22
29 18 20 25 29 30 31 31 34 35 32 24 18 16 15 14 14 15 17 16 18 19 19 18 17 16 15 14 13 12 13 12 11 11 12 15 16 16 16 14 12 10 10 11 12 12 13 14 15 16 17 20 21 23 26 28 27 28 26 27 26 26 26 26 28 32 32 31 30 30 29 30 28 27 28 29 27 25 25 24 22 23 23 22 22
28 27 19 19 24 20 26 29 32 29 25 18 9 8 9 11 13 16 17 17 19 20 20 18 15 15 15 14 13 11 12 14 14 12 12 13 14 15 16 13 11 10 8 7 7 7 7 9 10 12 14 17 19 21 23 25 27 27 27 28 27 27 27 27 27 27 27 30 28 30 30 30 32 33 32 32 32 31 27 25 23 24 23 23 23
19 24 27 28 25 17 20 21 22 21 18 12 5 6 8 11 14 15 16 18 20 20 20 17 14 14 15 15 13 12 13 14 14 15 14 11 11 13 12 11 9 3 4 4 5 5 6 7 8 9 11 14 17 19 20 23 25 25 26 27 28 29 28 28 26 27 30 25 23 26 28 29 30 32 34 33 33 32 34 30 26 25 25 25 25
18 21 21 28 26 19 14 11 12 11 10 7 6 8 10 12 13 14 16 19 19 18 16 15 13 14 14 14 15 14 14 13 14 15 14 11 10 11 9 8 7 6 6 8 8 7 7 8 7 10 10 12 13 16 19 21 22 22 23 23 26 27 28 30 29 29 28 26 25 26 25 27 27 28 28 31 31 32 33 34 33 28 27 27 27
14 18 17 23 23 19 12 3 2 3 4 3 6 9 11 12 14 17 19 19 18 16 15 14 14 15 16 15 15 14 13 12 13 15 14 13 12 13 10 9 11 15 13 10 11 11 11 11 10 11 10 11 14 20 22 21 16 18 21 21 23 23 25 26 28 29 30 27 28 28 25 27 28 25 25 26 28 30 31 32 34 36 31 27 28
16 17 17 18 19 13 9 5 7 6 4 3 6 9 13 14 17 20 19 19 18 18 16 15 16 17 16 16 16 15 13 11 12 14 14 14 12 13 13 13 16 14 10 8 10 11 12 12 10 10 11 11 15 19 18 19 16 18 19 20 22 23 24 25 25 27 27 29 31 32 30 27 25 26 25 26 27 29 30 30 32 33 35 33 27
19 18 18 13 19 17 16 14 12 9 4 4 8 11 13 16 18 20 20 19 19 17 16 15 16 17 18 19 17 16 15 12 12 12 13 13 12 13 12 12 14 12 9 13 13 11 9 10 9 8 10 11 14 18 16 16 15 16 19 19 20 21 23 23 24 25 24 27 29 31 31 26 27 24 26 27 28 29 29 30 31 32 33 33 30
20 21 19 12 18 23 24 21 14 10 8 9 11 14 15 17 18 20 19 19 18 16 16 16 17 18 20 20 19 18 15 13 12 11 12 13 14 15 12 11 14 13 13 15 11 9 10 10 10 9 10 12 12 17 17 14 14 17 16 16 17 19 20 21 22 24 25 26 28 29 29 30 27 27 29 29 27 27 28 30 31 32 31 30 29
17 21 21 16 15 22 26 25 21 17 14 15 16 16 16 18 18 20 20 19 18 16 15 16 18 20 21 20 20 18 18 12 13 11 12 13 15 15 12 11 14 17 17 15 13 12 13 12 13 13 13 13 13 16 17 16 15 14 15 15 16 18 19 20 nan nan nan nan nan 22 28 29 27 28 33 29 27 29 31 31 32 32 33 31 30
17 21 22 19 17 23 25 24 23 21 19 19 19 18 18 20 20 18 19 18 16 16 14 14 16 20 21 20 19 18 17 15 13 13 12 12 15 14 13 13 14 16 17 16 14 12 12 14 15 16 18 17 17 18 18 19 17 16 16 16 16 17 17 18 20 nan nan nan nan nan nan nan nan 24 27 26 29 32 29 25 27 30 32 32 32
13 16 19 19 18 22 24 24 22 23 23 23 22 21 19 19 18 18 18 14 15 14 13 12 14 16 18 19 18 17 17 16 15 14 12 13 14 13 14 14 14 15 16 15 14 14 13 15 17 18 19 19 18 17 17 18 20 19 16 16 15 18 18 17 16 nan nan nan nan nan nan nan 20 22 26 27 29 30 25 23 27 30 31 32 31
10 13 15 15 15 16 21 23 22 22 24 25 23 20 17 18 20 18 18 17 15 12 12 10 11 13 15 17 18 17 16 16 16 15 14 14 14 14 15 14 13 15 17 17 16 15 16 18 19 20 20 20 19 19 17 19 18 19 18 15 15 18 18 16 13 12 nan nan nan nan nan nan nan 25 25 26 29 30 28 26 28 29 28 26 27
14 16 16 16 16 17 19 22 20 21 20 22 22 20 17 18 20 19 19 18 14 12 12 nan 10 11 12 14 17 19 18 17 17 17 15 14 14 15 14 14 13 15 16 15 16 16 17 19 20 20 20 21 21 20 19 20 21 21 19 19 17 18 17 17 13 nan nan nan nan nan nan nan nan nan nan nan 28 29 28 27 27 28 25 nan 28
13 14 15 15 16 15 17 19 20 20 19 18 21 21 22 23 22 21 19 19 16 12 11 nan nan nan nan 11 13 14 17 19 18 17 16 15 15 15 15 15 14 14 14 14 14 15 16 18 19 20 21 22 21 21 21 23 24 22 21 20 19 20 nan 17 16 nan nan nan nan nan nan nan nan nan nan nan nan nan 27 26 26 26 26 24 27
12 12 14 13 12 13 15 19 20 19 18 20 24 25 26 25 23 22 19 nan nan nan nan nan nan nan nan nan nan 13 16 18 18 19 19 18 16 16 16 15 15 14 15 15 14 15 16 17 18 20 20 22 23 22 24 27 27 24 25 25 23 21 19 17 nan nan nan nan nan nan nan nan nan nan nan nan nan nan nan 28 27 25 24 25 25
13 12 13 13 11 12 14 16 18 18 nan 22 25 25 24 25 25 24 nan nan nan nan nan nan nan nan nan nan nan nan nan nan 18 19 20 19 18 17 17 17 16 16 15 14 15 16 16 18 18 21 21 23 25 24 26 27 26 27 nan 24 22 22 20 nan nan nan nan nan nan nan nan nan nan nan nan nan nan nan nan nan nan 28 26 26 26
11 12 11 12 10 11 14 13 16 18 19 22 24 26 25 25 26 nan nan nan nan nan nan nan nan nan nan nan nan nan nan nan nan 19 20 20 20 19 18 17 16 15 14 15 15 15 17 18 20 22 22 26 27 26 27 27 28 nan 24 28 28 25 23 nan nan nan nan nan nan nan nan nan nan nan nan nan nan nan nan nan nan nan nan 29 28
9 9 9 10 11 12 16 15 17 20 20 23 24 25 25 25 27 nan nan nan nan nan nan nan nan nan nan nan nan nan nan nan nan 20 20 20 20 20 18 17 17 15 15 15 15 16 19 20 20 22 24 25 26 28 27 27 28 nan nan 31 30 27 25 nan nan nan nan nan nan nan nan nan nan nan nan nan nan nan nan nan nan nan nan nan nan
8 8 9 13 19 25 28 26 22 21 21 22 24 23 24 25 26 nan nan nan nan nan nan nan nan nan nan nan nan nan nan nan nan nan 20 20 20 20 20 19 18 17 18 19 19 19 20 21 21 22 23 24 25 25 27 26 28 nan 31 30 nan nan nan 28 nan nan nan nan nan nan nan nan nan nan nan nan nan nan nan nan nan nan nan nan nan
10 14 22 26 26 25 23 21 20 21 20 21 23 23 23 25 26 nan nan nan nan nan nan nan nan nan nan nan nan nan nan nan nan nan nan nan nan nan 23 22 20 20 nan 21 21 22 22 22 22 22 23 25 24 25 25 25 27 27 nan nan nan nan nan nan nan nan nan nan nan nan nan nan nan nan nan nan nan nan nan nan nan nan nan nan nan
15 24 25 25 23 23 23 25 26 25 26 24 nan 24 24 23 25 nan nan nan nan nan nan nan nan nan nan nan nan nan nan nan nan nan nan nan nan nan nan nan nan nan nan nan nan nan 21 21 22 23 23 24 24 25 26 25 26 27 nan nan nan nan nan nan nan nan nan nan nan nan nan nan nan nan nan nan nan nan nan nan nan nan nan nan nan
Wind_Direction
293 292 291 300 301 303 300 302 304 306 305 305 306 305 304 303 303 302 301 300 300 300 300 300 302 303 305 305 304 302 301 299 298 298 299 300 299 299 298 299 300 299 299 299 299 299 296 298 299 296 292 288 287 285 284 284 283 285 286 283 278 274 269 266 266 263 265 268 266 268 271 272 268 267 267 266 264 263 261 255 244 238 230 234 237
297 293 293 298 303 302 301 302 303 304 304 303 303 304 304 303 302 302 302 302 302 302 301 302 303 304 305 304 303 302 301 300 299 299 300 300 300 300 300 301 301 300 299 298 298 299 297 296 296 293 288 287 285 281 281 283 283 283 285 284 278 273 271 271 266 259 262 264 264 264 267 270 271 271 269 266 268 265 262 256 nan nan nan nan nan
285 290 292 297 300 300 300 302 304 305 305 304 303 304 304 303 301 301 302 303 304 302 301 302 304 305 305 305 304 303 303 302 301 301 301 301 301 301 301 301 300 299 298 297 296 294 292 291 291 290 286 285 283 281 281 283 284 284 284 284 279 275 274 273 270 263 254 258 262 264 268 269 271 272 272 271 269 264 258 nan nan nan nan 235 nan
286 286 288 295 298 298 301 302 304 304 306 307 304 306 305 302 300 299 299 301 302 302 301 302 304 305 305 304 304 304 303 302 301 301 302 303 302 302 302 302 301 299 297 296 294 292 289 287 285 284 282 279 281 282 285 285 284 284 284 284 280 277 275 271 267 256 252 250 249 250 249 256 267 273 274 274 271 266 262 nan nan nan nan nan nan
285 285 285 291 293 297 302 303 303 302 306 308 305 306 304 301 299 299 299 299 299 299 299 301 303 304 303 303 302 302 301 300 299 299 300 301 301 301 301 301 301 299 298 296 294 291 288 285 283 283 282 283 282 283 284 284 285 283 282 283 280 277 277 275 268 259 254 251 250 248 249 255 265 271 275 273 270 266 263 259 258 255 250 247 240
281 284 285 287 291 297 301 302 302 301 303 305 302 301 301 298 299 299 298 298 299 299 300 301 302 302 301 299 298 297 297 296 296 295 296 298 300 300 300 300 299 297 297 297 295 292 286 281 281 281 278 278 279 280 282 283 284 281 282 281 278 276 276 273 266 260 254 249 245 244 246 253 260 270 274 272 271 267 262 257 252 nan nan nan 242
282 283 286 288 290 295 299 299 299 300 301 302 299 295 294 295 296 296 297 297 298 299 300 301 301 301 299 296 295 295 295 294 294 294 297 299 300 299 299 298 299 298 297 297 295 291 287 283 281 281 278 275 276 279 282 283 282 282 283 281 276 272 273 271 268 262 255 249 246 244 246 249 256 267 276 274 270 267 267 nan nan 252 250 nan 244
280 284 286 287 289 295 299 299 300 302 303 301 297 294 292 293 293 294 295 296 298 299 299 299 299 298 296 295 293 293 293 293 294 295 297 299 299 299 299 299 299 297 296 294 292 289 285 282 279 279 275 273 274 278 280 281 284 283 281 277 272 273 268 272 272 266 257 252 247 247 247 246 252 262 274 271 271 271 nan nan nan nan nan nan nan
282 283 284 286 289 298 298 300 302 303 302 300 298 296 294 293 293 293 295 295 296 297 297 297 297 296 295 294 293 293 293 294 295 296 298 299 300 301 301 299 295 293 293 293 291 287 284 282 277 275 272 270 271 273 277 279 280 281 282 278 276 269 270 273 273 265 260 256 251 250 249 253 255 261 271 271 273 272 265 259 258 258 254 nan nan
283 284 285 287 291 298 298 298 300 300 299 299 300 298 297 294 294 295 294 294 295 295 295 296 296 295 294 294 295 295 294 294 296 296 297 299 300 298 297 297 297 295 295 294 289 286 283 280 278 273 268 262 261 265 270 270 272 275 270 271 271 268 268 270 275 271 268 263 256 249 255 256 259 261 270 271 273 274 nan nan nan nan nan nan 250
281 284 286 288 293 297 297 298 299 298 296 297 298 297 296 295 295 294 292 292 293 294 295 296 295 295 296 297 298 298 296 295 295 297 299 300 300 299 299 299 299 297 295 293 290 286 282 278 276 271 267 261 257 259 261 260 259 261 259 263 263 259 263 275 273 272 272 267 259 250 255 260 260 262 274 278 277 276 278 nan nan 266 262 nan nan
281 284 285 287 295 297 296 295 297 298 294 294 294 293 294 294 292 292 290 290 291 293 294 294 295 296 298 301 301 301 299 297 296 296 298 298 299 299 299 300 300 299 297 294 289 284 281 277 273 269 264 261 258 257 258 259 259 259 260 247 251 261 271 278 273 275 275 270 264 263 260 263 267 272 276 279 278 278 280 278 273 265 262 260 258
282 284 284 286 290 298 295 292 295 294 292 292 292 292 292 291 289 289 287 287 289 291 292 293 294 297 301 303 302 300 299 298 297 296 296 297 300 301 301 301 301 300 298 293 287 283 279 274 268 265 262 260 259 258 257 258 263 263 255 250 259 270 278 275 273 275 274 269 266 266 265 262 271 278 282 283 284 281 275 276 274 269 267 264 260
284 282 283 286 289 299 297 290 293 292 287 288 290 291 289 287 286 284 283 285 287 289 290 291 294 298 301 300 298 297 296 295 294 294 295 296 298 299 300 300 299 298 295 291 287 282 278 273 264 260 260 259 258 259 259 260 262 261 256 258 266 273 276 271 270 270 270 268 268 267 264 266 275 283 282 286 286 284 283 281 278 275 270 264 259
288 289 287 286 286 292 299 296 295 288 282 282 283 284 284 283 280 278 280 284 286 286 288 290 296 300 298 296 294 294 292 291 292 293 295 294 293 294 296 297 296 294 292 288 284 280 276 271 261 253 252 252 252 255 257 259 258 255 253 259 269 271 268 261 262 266 268 268 266 267 268 270 283 286 287 287 286 287 288 286 281 277 274 269 266
290 289 285 280 277 283 289 299 297 284 272 270 271 275 278 278 273 276 282 285 285 284 287 294 299 297 293 292 292 292 293 294 297 298 297 295 293 293 293 295 296 294 291 286 282 277 273 269 260 252 249 248 247 249 253 255 255 252 251 253 264 269 267 261 261 265 267 267 262 262 268 269 286 290 290 289 289 291 293 290 283 278 277 275 270
288 286 287 283 276 277 279 286 289 286 275 269 268 271 279 276 271 280 286 283 283 286 294 298 295 292 292 293 292 295 298 300 301 301 299 298 298 297 295 294 295 291 286 283 279 274 269 265 261 253 245 242 242 244 249 253 253 252 250 250 259 268 268 263 261 263 265 264 260 256 258 269 280 285 288 290 293 296 295 295 292 288 287 283 278
288 288 287 279 274 277 280 281 281 274 262 265 269 274 275 275 278 286 281 281 285 291 295 292 291 292 294 294 295 297 298 299 300 302 302 301 302 301 298 296 294 289 284 281 277 273 268 263 258 254 247 242 243 242 246 250 252 252 250 250 257 267 267 264 258 257 259 261 257 255 254 254 278 286 289 292 293 294 296 296 297 296 292 288 284
286 283 281 279 277 277 274 273 269 261 260 261 265 268 278 288 290 281 280 282 284 289 291 291 294 295 295 295 295 295 295 298 301 303 301 300 302 306 307 302 296 288 282 280 277 273 267 262 257 253 250 245 243 244 246 248 251 252 252 254 261 266 269 259 255 254 254 253 255 255 252 242 266 281 285 288 294 296 297 299 299 296 292 290 287
285 285 283 275 269 268 264 256 257 257 261 265 264 256 272 278 282 279 280 281 285 287 290 292 294 293 294 295 291 290 292 296 302 301 302 301 300 301 308 306 300 291 285 280 277 272 266 261 255 251 250 246 241 242 241 245 246 249 250 255 262 269 257 255 255 254 253 254 258 255 253 251 264 276 281 284 288 290 295 295 296 296 296 292 288
291 289 286 288 277 268 263 259 257 258 259 260 256 255 253 274 275 274 273 276 280 285 289 293 291 291 284 283 279 281 282 283 286 288 298 293 299 302 305 306 301 296 292 284 275 271 266 260 256 251 249 246 243 241 238 235 238 241 245 251 260 253 253 254 254 253 252 251 254 254 253 257 261 271 274 278 281 285 289 293 295 297 294 291 289
294 288 285 276 272 267 263 254 249 254 249 251 255 260 262 259 246 252 257 262 267 275 279 281 283 282 284 284 285 287 287 288 288 287 283 286 295 305 305 304 299 293 290 285 277 269 264 260 257 254 253 250 247 239 234 233 232 236 233 239 245 249 251 253 253 251 251 250 250 254 255 258 266 270 271 272 275 279 281 284 289 288 292 290 288
288 282 263 262 264 265 258 250 252 251 255 260 252 259 267 257 247 248 253 260 269 270 273 278 277 282 286 288 288 288 291 293 293 290 286 282 286 295 300 299 299 293 285 283 280 271 263 260 257 256 256 254 244 nan nan nan 227 228 226 228 234 243 248 251 251 250 249 248 249 253 257 260 267 271 270 270 272 272 275 278 282 283 287 284 285
292 279 269 261 263 264 261 260 253 247 238 241 240 255 264 264 259 257 257 261 269 276 279 280 281 284 289 292 293 290 291 293 300 303 294 288 288 283 277 295 299 295 286 275 276 269 263 258 257 255 251 246 246 nan nan nan 234 229 228 227 229 237 244 249 250 249 247 247 248 252 255 258 265 268 269 269 268 269 269 271 275 282 278 280 282
279 270 265 267 271 255 254 257 257 260 244 233 236 243 253 262 267 264 264 271 276 282 282 282 286 291 296 297 295 290 292 300 292 287 291 296 294 287 281 275 276 271 271 260 260 256 251 247 245 248 248 250 248 244 nan nan 236 234 230 226 229 236 240 244 247 248 247 244 245 248 250 254 257 265 267 267 268 268 267 267 268 271 275 276 275
267 272 277 281 271 235 236 254 250 229 237 245 243 239 238 249 262 270 275 280 284 287 284 286 290 296 305 304 294 288 297 305 298 297 296 301 301 292 287 285 267 258 256 256 254 251 248 247 248 247 248 249 247 246 243 242 241 236 231 227 231 235 237 239 244 246 246 244 243 247 243 249 246 262 265 265 266 267 267 264 261 262 265 270 270
264 264 267 266 242 226 235 257 251 248 249 248 237 243 242 243 261 280 290 291 292 292 289 286 289 298 308 308 301 297 304 310 310 303 301 296 296 293 287 284 271 261 259 258 252 250 252 251 249 249 249 248 249 246 244 243 244 242 236 230 229 232 234 235 237 243 244 244 241 248 243 242 242 253 261 262 262 262 264 266 264 260 261 nan 265
265 262 251 236 227 227 255 262 248 251 253 246 239 248 255 259 268 283 288 297 304 302 295 290 291 297 303 306 306 307 310 311 306 301 298 289 288 289 285 283 278 271 267 263 260 253 254 255 253 249 246 246 249 246 244 247 249 247 242 239 237 235 233 231 230 236 239 240 240 242 242 238 237 242 252 257 260 260 261 264 265 261 260 259 257
270 263 253 235 218 225 239 247 245 239 239 244 240 245 258 268 275 277 288 306 306 303 300 292 294 296 297 302 305 309 307 310 312 305 295 286 282 283 283 284 281 273 262 261 265 260 255 257 257 254 251 247 247 246 247 247 248 246 245 242 240 238 239 237 237 239 240 241 241 238 240 238 235 238 243 254 256 259 260 260 264 265 261 260 258
272 257 238 234 230 230 238 234 236 231 237 249 247 250 266 277 278 280 293 306 302 298 297 299 296 296 299 304 309 312 316 316 317 298 291 282 283 281 283 279 274 261 256 262 263 265 265 262 260 259 253 248 243 241 247 247 247 244 242 242 240 239 240 241 241 239 239 239 241 242 236 236 237 236 236 248 252 255 258 256 258 263 264 261 257
292 254 233 232 241 234 227 227 230 237 239 250 253 253 267 278 281 288 305 304 301 298 296 292 289 293 298 305 312 313 305 298 297 290 282 285 287 284 279 275 258 247 247 256 261 265 266 263 260 259 255 248 244 243 246 248 245 241 238 238 235 237 239 241 241 238 237 236 239 241 242 238 239 241 240 240 244 250 253 253 253 255 259 260 260
298 300 284 269 261 257 244 224 219 221 234 239 243 262 278 285 288 297 304 295 296 293 292 289 294 298 297 303 308 309 291 292 293 284 286 289 292 286 270 257 228 202 223 235 247 252 258 258 253 249 248 249 246 243 242 248 245 241 239 235 232 233 236 240 241 247 244 240 234 240 242 244 244 244 242 241 241 241 247 255 254 255 254 254 256
287 273 287 284 286 289 260 244 225 207 193 215 243 291 285 288 294 301 302 296 293 291 292 293 297 297 296 301 304 300 290 293 292 292 298 305 304 296 296 300 302 282 200 233 249 255 249 247 236 241 245 248 248 243 241 242 245 241 242 239 238 236 237 242 243 245 250 250 245 241 241 246 251 248 244 243 243 243 243 247 252 253 252 250 251
295 283 279 284 290 272 258 246 239 204 190 230 276 300 294 291 288 292 286 283 288 288 287 287 290 293 294 296 294 293 297 299 296 294 300 303 293 301 307 291 285 271 253 251 256 270 266 260 254 241 234 237 240 240 238 238 241 241 239 241 243 241 241 241 239 239 242 243 247 243 245 247 252 255 249 243 245 247 247 247 245 248 250 250 252
285 287 289 285 282 272 244 201 287 272 232 272 307 293 284 286 291 281 278 284 283 285 287 290 292 292 293 295 291 295 297 301 299 296 308 301 301 306 292 264 248 231 221 236 268 263 265 261 260 249 239 236 239 241 247 250 245 240 240 239 244 246 244 243 241 240 240 235 235 246 246 246 246 249 250 246 247 248 249 249 248 244 245 250 251
310 306 280 279 285 273 260 301 323 315 324 324 271 279 283 287 286 286 286 285 290 295 300 303 303 303 302 294 290 296 297 297 298 297 301 304 304 296 286 269 252 251 260 265 254 259 257 254 252 272 259 249 256 263 265 262 253 248 244 242 243 245 246 244 241 240 239 242 240 236 234 239 245 245 246 247 247 249 249 250 249 248 246 244 249
311 312 305 268 256 241 245 283 328 334 317 267 262 265 266 273 276 279 286 290 297 298 300 299 297 297 293 293 296 296 296 295 292 295 301 298 288 276 273 271 264 261 268 250 237 225 245 258 242 241 272 267 263 269 265 267 267 262 254 249 246 248 251 250 249 246 242 239 242 244 242 231 235 234 243 244 246 250 251 250 249 248 248 247 246
309 312 308 272 270 258 252 273 314 318 300 292 282 272 272 274 272 275 283 286 291 300 301 297 290 287 286 290 293 295 295 290 285 288 286 283 281 277 273 263 248 246 252 242 221 240 235 250 254 235 253 263 265 266 266 263 259 260 261 256 254 256 257 258 259 254 245 242 237 235 238 241 240 245 243 242 242 248 252 253 251 249 248 249 248
294 303 306 299 277 266 256 273 300 309 301 293 283 280 281 276 274 275 278 283 287 287 291 288 287 284 284 288 290 293 292 288 282 282 280 277 277 279 274 257 242 244 258 250 227 229 237 240 262 257 248 256 265 267 278 273 264 257 260 265 270 267 264 263 nan nan nan nan nan 242 241 238 235 241 246 243 242 242 242 246 250 252 251 248 245
287 293 298 302 292 285 279 286 301 307 302 298 294 289 284 286 283 279 276 275 279 286 282 286 285 282 284 287 287 291 294 295 284 277 273 268 269 277 275 266 252 251 257 249 238 238 244 250 255 264 266 256 250 260 266 271 271 273 268 263 261 267 267 271 268 nan nan nan nan nan nan nan nan 240 243 242 242 245 247 249 253 257 256 254 249
289 295 300 303 308 304 302 306 307 307 305 302 297 295 287 282 275 276 282 273 278 284 280 277 277 280 283 285 288 287 287 287 283 280 277 268 265 271 270 265 254 249 252 252 247 242 239 249 248 247 256 256 253 260 265 278 277 263 260 262 258 257 257 262 265 nan nan nan nan nan nan nan 236 245 242 237 240 248 258 256 253 254 254 252 247
297 298 303 308 311 306 312 308 305 305 304 303 298 294 288 290 287 289 284 273 265 265 267 263 279 289 290 288 286 284 283 282 283 280 273 269 271 265 262 267 261 249 241 236 237 235 240 238 241 244 245 254 256 256 257 261 258 273 273 261 255 253 255 263 274 261 nan nan nan nan nan nan nan 238 242 244 243 246 252 255 258 259 260 263 261
284 290 294 300 305 309 303 301 301 298 294 293 293 289 277 275 278 283 281 273 268 276 284 nan 282 280 282 290 293 292 285 276 277 280 275 269 265 265 266 256 253 255 253 251 252 244 241 246 245 249 249 248 255 255 257 259 274 271 271 266 255 254 255 258 265 nan nan nan nan nan nan nan nan nan nan nan 246 247 250 255 254 259 258 nan 259
271 275 286 298 296 296 293 295 296 291 288 285 281 277 275 271 266 271 267 272 278 274 277 nan nan nan nan 282 275 273 279 283 282 275 268 266 267 267 268 263 259 260 262 259 255 254 251 247 250 254 258 259 254 255 253 256 266 274 261 263 261 255 nan 250 249 nan nan nan nan nan nan nan nan nan nan nan nan nan 251 253 254 256 259 258 257
293 295 297 297 289 292 290 291 288 287 283 282 281 280 276 268 265 259 263 nan nan nan nan nan nan nan nan nan nan 275 272 268 264 266 268 265 261 264 263 261 257 256 253 253 254 254 257 260 262 264 268 266 264 262 258 256 257 265 275 269 257 251 256 258 nan nan nan nan nan nan nan nan nan nan nan nan nan nan nan 250 251 252 255 259 259
310 310 310 309 292 282 277 273 272 273 nan 281 283 280 278 278 272 268 nan nan nan nan nan nan nan nan nan nan nan nan nan nan 268 268 266 264 260 260 258 256 253 251 253 258 258 254 257 261 262 264 265 258 265 265 262 262 266 260 nan 265 267 268 268 nan nan nan nan nan nan nan nan nan nan nan nan nan nan nan nan nan nan 249 248 248 252
323 314 306 304 290 281 269 260 267 265 267 273 275 274 273 274 276 nan nan nan nan nan nan nan nan nan nan nan nan nan nan nan nan 269 267 263 260 255 254 254 257 260 259 262 264 266 264 265 263 268 267 265 265 265 268 267 264 nan 260 261 264 262 265 nan nan nan nan nan nan nan nan nan nan nan nan nan nan nan nan nan nan nan nan 246 246
309 306 303 293 299 282 263 246 255 257 259 268 269 275 278 276 274 nan nan nan nan nan nan nan nan nan nan nan nan nan nan nan nan 273 272 270 267 263 262 261 261 263 262 264 264 260 258 258 265 264 264 267 269 271 272 273 271 nan nan 266 264 258 258 nan nan nan nan nan nan nan nan nan nan nan nan nan nan nan nan nan nan nan nan nan nan
284 305 289 251 241 237 232 221 222 240 258 266 271 275 282 283 280 nan nan nan nan nan nan nan nan nan nan nan nan nan nan nan nan nan 265 266 263 262 259 256 254 251 250 252 250 255 261 264 264 264 266 263 266 271 273 273 272 nan 270 265 nan nan nan 264 nan nan nan nan nan nan nan nan nan nan nan nan nan nan nan nan nan nan nan nan nan
257 248 242 247 252 259 261 258 248 239 239 258 267 266 272 276 275 nan nan nan nan nan nan nan nan nan nan nan nan nan nan nan nan nan nan nan nan nan 247 246 246 245 nan 247 249 249 249 252 255 260 262 261 258 265 270 269 269 269 nan nan nan nan nan nan nan nan nan nan nan nan nan nan nan nan nan nan nan nan nan nan nan nan nan nan nan
237 245 254 264 273 276 282 280 275 262 248 238 nan 256 259 265 273 nan nan nan nan nan nan nan nan nan nan nan nan nan nan nan nan nan nan nan nan nan nan nan nan nan nan nan nan nan 252 255 256 258 260 265 266 267 265 265 268 266 nan nan nan nan nan nan nan nan nan nan nan nan nan nan nan nan nan nan nan nan nan nan nan nan nan nan nan